Regional Weather Roundup
Issued by NWS

Home | Current Version | Previous Version | Graphics & Text | Print | Product List | Glossary On
Versions: 1 2 3 4 5 6 7 8 9 10 11 12 13 14 15 16 17 18 19 20 21 22 23 24 25 26 27 28 29 30 31 32 33 34 35 36 37 38 39 40 41 42 43 44 45 46 47 48 49 50
000
ASUS45 KCYS 210310
RWRWY

WYOMING REGIONAL WEATHER ROUNDUP
NATIONAL WEATHER SERVICE CHEYENNE WY
900 PM MDT MON APR 20 2015

NOTE:  "FAIR" INDICATES FEW OR NO CLOUDS BELOW 12,000 FEET
WITH NO SIGNIFICANT WEATHER AND/OR OBSTRUCTIONS TO VISIBILITY.

WYZ001-210400-
YELLOWSTONE NATIONAL PARK

CITY           SKY/WX    TMP DP  RH WIND       PRES   REMARKS
LK YELLOWSTONE   N/A     32  22  66 CALM      30.00R
W YELLOWSTONE  NOT AVBL

$$
WYZ002>013-054>058-071-098>099-210400-
NORTHERN WYOMING

CITY           SKY/WX    TMP DP  RH WIND       PRES   REMARKS
JACKSON        FAIR      48  23  37 N3        29.93S
CODY           FAIR      48  27  43 W3        29.89S
GREYBULL       FAIR      51  20  29 W6        29.85R
WORLAND        FAIR      42  24  49 CALM      29.87R
SHERIDAN       FAIR      39  26  59 W9        29.88R WCI  33
BUFFALO        FAIR      45  22  40 NW7       29.90R
GILLETTE       FAIR      37  19  48 NW5       29.88S WCI  33
HULETT         FAIR      43  18  36 N9        29.90R
NEWCASTLE      FAIR      41  19  42 N7        29.89R

$$
WYZ014>020-022>026-101>103-210400-
CENTRAL WYOMING

CITY           SKY/WX    TMP DP  RH WIND       PRES   REMARKS
BIG PINEY      FAIR      38  16  40 NW9       29.96R WCI  31
PINEDALE       FAIR      36  18  48 MISG      29.96R
DUBOIS         FAIR      45  14  29 W12       29.93R
LANDER         FAIR      48  24  39 CALM      29.91R
RIVERTON       FAIR      46  20  35 NE6       29.92R
CASPER         FAIR      38  23  55 NE6       29.92R WCI  33
DOUGLAS        FAIR      39  28  64 N8        29.92R WCI  33

$$
WYZ021-027>030-104>119-210400-
SOUTHERN WYOMING

CITY           SKY/WX    TMP DP  RH WIND       PRES   REMARKS
EVANSTON       FAIR      48  22  35 W8        29.98R
KEMMERER       FAIR      45  23  42 W8        29.97R
FORT BRIDGER   CLEAR     48  21  34 CALM      30.00R
ROCK SPRINGS   MOCLDY    48  16  27 NW7       29.92R
DIXON          CLOUDY    45  29  54 N8        29.97R
RAWLINS        FAIR      39  21  48 N8        29.95R WCI  33
SARATOGA       FAIR      37  27  65 CALM      29.97R
LARAMIE        FAIR      27  21  78 SE6       29.96R WCI  20
CHEYENNE       FAIR      37  25  61 W10       29.94R WCI  30
TORRINGTON     FAIR      47  20  34 NW7       29.88R
PINE BLUFFS    FAIR      37  28  70 W8        29.92R WCI  31

$$



USA.gov is the U.S. government's official web portal to all federal, state and local government web resources and services.